Time,TemperatureF,DewpointF,PressureIn,WindDirection,WindDirectionDegrees,WindSpeedMPH,WindSpeedGustMPH,Humidity,HourlyPrecipIn,Conditions,Clouds,dailyrainin,SolarRadiationWatts/m^2,SoftwareType,DateUTC
2013-09-14 00:01:00,80.8,62.6,29.57,East,100,1.0,2.0,54,0.00,,,0.00,0,WeatherCatV1.11B39,2013-09-14 07:01:00,
2013-09-14 00:06:00,80.9,62.1,29.57,East,101,2.0,5.0,53,0.00,,,0.00,0,WeatherCatV1.11B39,2013-09-14 07:06:00,
2013-09-14 00:11:00,80.9,62.7,29.57,East,98,3.0,9.0,54,0.00,,,0.00,0,WeatherCatV1.11B39,2013-09-14 07:11:00,
2013-09-14 00:16:00,80.9,62.7,29.57,ESE,119,6.0,8.0,54,0.00,,,0.00,0,WeatherCatV1.11B39,2013-09-14 07:16:00,
2013-09-14 00:21:00,80.9,62.7,29.57,ESE,116,4.0,6.0,54,0.00,,,0.00,0,WeatherCatV1.11B39,2013-09-14 07:21:00,
2013-09-14 00:26:00,81.0,62.2,29.57,ESE,117,7.0,10.0,53,0.00,,,0.00,0,WeatherCatV1.11B39,2013-09-14 07:26:00,
2013-09-14 00:31:00,80.9,62.1,29.57,ESE,109,5.0,8.0,53,0.00,,,0.00,0,WeatherCatV1.11B39,2013-09-14 07:31:00,
2013-09-14 00:36:00,80.9,62.1,29.57,ESE,102,5.0,8.0,53,0.00,,,0.00,0,WeatherCatV1.11B39,2013-09-14 07:36:00,
2013-09-14 00:41:00,80.9,62.1,29.57,East,82,3.0,8.0,53,0.00,,,0.00,0,WeatherCatV1.11B39,2013-09-14 07:41:00,
2013-09-14 00:46:00,80.9,62.1,29.56,ENE,76,2.0,6.0,53,0.00,,,0.00,0,WeatherCatV1.11B39,2013-09-14 07:46:00,
2013-09-14 00:51:00,80.9,62.1,29.57,SE,126,4.0,9.0,53,0.00,,,0.00,0,WeatherCatV1.11B39,2013-09-14 07:51:00,
2013-09-14 00:56:00,81.0,62.2,29.57,ESE,107,2.0,7.0,53,0.00,,,0.00,0,WeatherCatV1.11B39,2013-09-14 07:56:00,
2013-09-14 01:01:00,81.1,62.3,29.57,SE,140,2.0,10.0,53,0.00,,,0.00,0,WeatherCatV1.11B39,2013-09-14 08:01:00,
2013-09-14 01:06:00,81.1,62.3,29.57,East,95,4.0,11.0,53,0.00,,,0.00,0,WeatherCatV1.11B39,2013-09-14 08:06:00,
2013-09-14 01:11:00,81.1,62.3,29.57,ESE,102,4.0,11.0,53,0.00,,,0.00,0,WeatherCatV1.11B39,2013-09-14 08:11:00,
2013-09-14 01:16:00,81.0,62.2,29.57,ESE,114,3.0,7.0,53,0.00,,,0.00,0,WeatherCatV1.11B39,2013-09-14 08:16:00,
2013-09-14 01:21:00,80.9,62.1,29.57,SE,131,7.0,10.0,53,0.00,,,0.00,0,WeatherCatV1.11B39,2013-09-14 08:21:00,
2013-09-14 01:26:00,80.7,62.5,29.57,ESE,109,5.0,7.0,54,0.00,,,0.00,0,WeatherCatV1.11B39,2013-09-14 08:26:00,
2013-09-14 01:31:00,80.4,62.7,29.56,SE,127,3.0,8.0,55,0.00,,,0.00,0,WeatherCatV1.11B39,2013-09-14 08:31:00,
2013-09-14 01:36:00,80.3,62.6,29.57,East,91,4.0,10.0,55,0.00,,,0.00,0,WeatherCatV1.11B39,2013-09-14 08:36:00,
2013-09-14 01:41:00,80.3,62.6,29.56,ESE,107,3.0,12.0,55,0.00,,,0.00,0,WeatherCatV1.11B39,2013-09-14 08:41:00,
2013-09-14 01:46:00,80.1,62.4,29.56,ESE,103,5.0,8.0,55,0.00,,,0.00,0,WeatherCatV1.11B39,2013-09-14 08:46:00,
2013-09-14 01:51:00,80.0,62.9,29.56,East,97,7.0,9.0,56,0.00,,,0.00,0,WeatherCatV1.11B39,2013-09-14 08:51:00,
2013-09-14 01:56:00,80.0,62.9,29.57,East,93,4.0,10.0,56,0.00,,,0.00,0,WeatherCatV1.11B39,2013-09-14 08:56:00,
2013-09-14 02:01:00,79.8,62.7,29.56,East,86,2.0,7.0,56,0.00,,,0.00,0,WeatherCatV1.11B39,2013-09-14 09:01:00,
2013-09-14 02:06:00,79.7,62.6,29.56,ESE,106,4.0,9.0,56,0.00,,,0.00,0,WeatherCatV1.11B39,2013-09-14 09:06:00,
2013-09-14 02:11:00,79.6,62.5,29.56,ESE,103,3.0,5.0,56,0.00,,,0.00,0,WeatherCatV1.11B39,2013-09-14 09:11:00,
2013-09-14 02:16:00,79.4,62.8,29.57,East,80,3.0,9.0,57,0.00,,,0.00,0,WeatherCatV1.11B39,2013-09-14 09:16:00,
2013-09-14 02:21:00,79.4,62.8,29.56,ESE,115,5.0,8.0,57,0.00,,,0.00,0,WeatherCatV1.11B39,2013-09-14 09:21:00,
2013-09-14 02:26:00,79.2,63.1,29.56,ESE,110,5.0,11.0,58,0.00,,,0.00,0,WeatherCatV1.11B39,2013-09-14 09:26:00,
2013-09-14 02:31:00,79.1,63.0,29.56,East,92,5.0,9.0,58,0.00,,,0.00,0,WeatherCatV1.11B39,2013-09-14 09:31:00,
2013-09-14 02:36:00,79.1,63.0,29.56,East,81,2.0,8.0,58,0.00,,,0.00,0,WeatherCatV1.11B39,2013-09-14 09:36:00,
2013-09-14 02:41:00,79.1,63.0,29.56,East,94,8.0,8.0,58,0.00,,,0.00,0,WeatherCatV1.11B39,2013-09-14 09:41:00,
2013-09-14 02:46:00,79.0,62.9,29.56,East,101,4.0,8.0,58,0.00,,,0.00,0,WeatherCatV1.11B39,2013-09-14 09:46:00,
2013-09-14 02:51:00,78.9,62.8,29.56,East,100,5.0,7.0,58,0.00,,,0.00,0,WeatherCatV1.11B39,2013-09-14 09:51:00,
2013-09-14 02:56:00,78.8,62.8,29.56,East,92,5.0,9.0,58,0.00,,,0.00,0,WeatherCatV1.11B39,2013-09-14 09:56:00,
2013-09-14 03:01:00,78.8,62.8,29.55,East,91,3.0,7.0,58,0.00,,,0.00,0,WeatherCatV1.11B39,2013-09-14 10:01:00,
2013-09-14 03:06:00,78.7,62.7,29.56,ESE,107,5.0,9.0,58,0.00,,,0.00,0,WeatherCatV1.11B39,2013-09-14 10:06:00,
2013-09-14 03:11:00,78.4,62.9,29.56,ENE,69,3.0,5.0,59,0.00,,,0.00,0,WeatherCatV1.11B39,2013-09-14 10:11:00,
2013-09-14 03:16:00,78.2,62.7,29.56,East,86,8.0,8.0,59,0.00,,,0.00,0,WeatherCatV1.11B39,2013-09-14 10:16:00,
2013-09-14 03:21:00,78.0,63.0,29.56,ESE,105,10.0,10.0,60,0.00,,,0.00,0,WeatherCatV1.11B39,2013-09-14 10:21:00,
2013-09-14 03:26:00,77.9,62.9,29.56,SE,137,4.0,6.0,60,0.00,,,0.00,0,WeatherCatV1.11B39,2013-09-14 10:26:00,
2013-09-14 03:31:00,77.7,62.7,29.56,ESE,120,2.0,4.0,60,0.00,,,0.00,0,WeatherCatV1.11B39,2013-09-14 10:31:00,
2013-09-14 03:36:00,77.6,62.6,29.56,ESE,106,2.0,8.0,60,0.00,,,0.00,0,WeatherCatV1.11B39,2013-09-14 10:36:00,
2013-09-14 03:41:00,77.6,62.6,29.56,East,101,4.0,4.0,60,0.00,,,0.00,0,WeatherCatV1.11B39,2013-09-14 10:41:00,
2013-09-14 03:46:00,77.0,62.5,29.56,East,101,0.0,1.0,61,0.00,,,0.00,0,WeatherCatV1.11B39,2013-09-14 10:46:00,
2013-09-14 03:51:00,76.0,62.5,29.56,East,101,0.0,1.0,63,0.00,,,0.00,0,WeatherCatV1.11B39,2013-09-14 10:51:00,
2013-09-14 03:56:00,75.2,62.2,29.56,East,101,0.0,1.0,64,0.00,,,0.00,0,WeatherCatV1.11B39,2013-09-14 10:56:00,
2013-09-14 04:01:00,74.8,62.2,29.56,East,101,1.0,1.0,65,0.00,,,0.00,0,WeatherCatV1.11B39,2013-09-14 11:01:00,
2013-09-14 04:06:00,74.7,62.1,29.56,East,101,0.0,0.0,65,0.00,,,0.00,0,WeatherCatV1.11B39,2013-09-14 11:06:00,
2013-09-14 04:11:00,74.4,62.3,29.56,East,101,1.0,2.0,66,0.00,,,0.00,0,WeatherCatV1.11B39,2013-09-14 11:11:00,
2013-09-14 04:16:00,73.8,62.6,29.56,East,101,0.0,1.0,68,0.00,,,0.00,0,WeatherCatV1.11B39,2013-09-14 11:16:00,
2013-09-14 04:21:00,73.4,62.6,29.56,East,101,0.0,0.0,69,0.00,,,0.00,0,WeatherCatV1.11B39,2013-09-14 11:21:00,
2013-09-14 04:26:00,73.0,62.6,29.56,East,101,0.0,0.0,70,0.00,,,0.00,0,WeatherCatV1.11B39,2013-09-14 11:26:00,
2013-09-14 04:31:00,72.7,62.3,29.56,East,101,1.0,1.0,70,0.00,,,0.00,0,WeatherCatV1.11B39,2013-09-14 11:31:00,
2013-09-14 04:36:00,72.2,62.7,29.56,East,101,0.0,2.0,72,0.00,,,0.00,0,WeatherCatV1.11B39,2013-09-14 11:36:00,
2013-09-14 04:41:00,71.8,62.7,29.56,East,101,0.0,0.0,73,0.00,,,0.00,0,WeatherCatV1.11B39,2013-09-14 11:41:00,
2013-09-14 04:46:00,71.7,62.6,29.56,East,101,0.0,0.0,73,0.00,,,0.00,0,WeatherCatV1.11B39,2013-09-14 11:46:00,
2013-09-14 04:51:00,71.4,62.7,29.56,East,101,0.0,0.0,74,0.00,,,0.00,0,WeatherCatV1.11B39,2013-09-14 11:51:00,
2013-09-14 04:56:00,71.4,62.7,29.56,East,101,0.0,0.0,74,0.00,,,0.00,0,WeatherCatV1.11B39,2013-09-14 11:56:00,
2013-09-14 05:01:00,70.9,62.6,29.56,East,101,0.0,0.0,75,0.00,,,0.00,0,WeatherCatV1.11B39,2013-09-14 12:01:00,
2013-09-14 05:06:00,70.8,62.8,29.56,East,101,0.0,1.0,76,0.00,,,0.00,0,WeatherCatV1.11B39,2013-09-14 12:06:00,
2013-09-14 05:11:00,71.2,62.9,29.56,East,101,0.0,1.0,75,0.00,,,0.00,0,WeatherCatV1.11B39,2013-09-14 12:11:00,
2013-09-14 05:16:00,71.3,62.6,29.56,East,101,0.0,2.0,74,0.00,,,0.00,0,WeatherCatV1.11B39,2013-09-14 12:16:00,
2013-09-14 05:21:00,71.5,62.8,29.57,East,101,1.0,2.0,74,0.00,,,0.00,0,WeatherCatV1.11B39,2013-09-14 12:21:00,
2013-09-14 05:26:00,71.6,62.9,29.57,East,93,1.0,4.0,74,0.00,,,0.00,0,WeatherCatV1.11B39,2013-09-14 12:26:00,
2013-09-14 05:31:00,72.1,62.6,29.57,ENE,66,0.0,2.0,72,0.00,,,0.00,0,WeatherCatV1.11B39,2013-09-14 12:31:00,
2013-09-14 05:36:00,72.4,62.8,29.57,ENE,68,1.0,2.0,72,0.00,,,0.00,0,WeatherCatV1.11B39,2013-09-14 12:36:00,
2013-09-14 05:41:00,72.1,62.6,29.57,ENE,68,0.0,2.0,72,0.00,,,0.00,0,WeatherCatV1.11B39,2013-09-14 12:41:00,
2013-09-14 05:46:00,71.6,62.5,29.57,ENE,68,0.0,0.0,73,0.00,,,0.00,0,WeatherCatV1.11B39,2013-09-14 12:46:00,
2013-09-14 05:51:00,71.2,62.1,29.57,ENE,68,0.0,1.0,73,0.00,,,0.00,0,WeatherCatV1.11B39,2013-09-14 12:51:00,
2013-09-14 05:56:00,71.1,62.4,29.57,ENE,68,1.0,1.0,74,0.00,,,0.00,0,WeatherCatV1.11B39,2013-09-14 12:56:00,
2013-09-14 06:01:00,70.8,62.1,29.57,ENE,68,2.0,2.0,74,0.00,,,0.00,0,WeatherCatV1.11B39,2013-09-14 13:01:00,
2013-09-14 06:06:00,70.6,62.3,29.58,ENE,64,1.0,2.0,75,0.00,,,0.00,5,WeatherCatV1.11B39,2013-09-14 13:06:00,
2013-09-14 06:11:00,71.2,62.5,29.58,ENE,57,0.0,1.0,74,0.00,,,0.00,7,WeatherCatV1.11B39,2013-09-14 13:11:00,
2013-09-14 06:16:00,71.4,62.3,29.58,ENE,57,0.0,0.0,73,0.00,,,0.00,11,WeatherCatV1.11B39,2013-09-14 13:16:00,
2013-09-14 06:21:00,71.4,62.3,29.58,ENE,57,0.0,0.0,73,0.00,,,0.00,12,WeatherCatV1.11B39,2013-09-14 13:21:00,
2013-09-14 06:26:00,71.5,62.8,29.58,ENE,57,0.0,1.0,74,0.00,,,0.00,14,WeatherCatV1.11B39,2013-09-14 13:26:00,
2013-09-14 06:31:00,71.8,62.7,29.58,ENE,57,0.0,0.0,73,0.00,,,0.00,18,WeatherCatV1.11B39,2013-09-14 13:31:00,
2013-09-14 06:36:00,71.5,62.8,29.58,NE,54,2.0,4.0,74,0.00,,,0.00,19,WeatherCatV1.11B39,2013-09-14 13:36:00,
2013-09-14 06:41:00,71.5,62.8,29.59,NE,55,1.0,3.0,74,0.00,,,0.00,23,WeatherCatV1.11B39,2013-09-14 13:41:00,
2013-09-14 06:46:00,71.9,62.8,29.59,NE,55,0.0,4.0,73,0.00,,,0.00,42,WeatherCatV1.11B39,2013-09-14 13:46:00,
2013-09-14 06:51:00,73.2,63.2,29.59,ENE,60,3.0,5.0,71,0.00,,,0.00,35,WeatherCatV1.11B39,2013-09-14 13:51:00,
2013-09-14 06:56:00,74.2,63.4,29.59,East,80,2.0,5.0,69,0.00,,,0.00,77,WeatherCatV1.11B39,2013-09-14 13:56:00,
2013-09-14 07:01:00,74.7,63.8,29.59,East,80,0.0,1.0,69,0.00,,,0.00,121,WeatherCatV1.11B39,2013-09-14 14:01:00,
2013-09-14 07:06:00,75.2,63.9,29.60,East,80,1.0,1.0,68,0.00,,,0.00,141,WeatherCatV1.11B39,2013-09-14 14:06:00,
2013-09-14 07:11:00,76.2,63.6,29.60,East,95,2.0,6.0,65,0.00,,,0.00,158,WeatherCatV1.11B39,2013-09-14 14:11:00,
2013-09-14 07:16:00,77.4,64.2,29.60,SE,124,3.0,7.0,64,0.00,,,0.00,178,WeatherCatV1.11B39,2013-09-14 14:16:00,
2013-09-14 07:21:00,78.4,64.3,29.60,East,86,1.0,5.0,62,0.00,,,0.00,192,WeatherCatV1.11B39,2013-09-14 14:21:00,
2013-09-14 07:26:00,78.8,64.7,29.60,East,94,2.0,3.0,62,0.00,,,0.00,207,WeatherCatV1.11B39,2013-09-14 14:26:00,
2013-09-14 07:31:00,78.7,63.6,29.60,ENE,78,0.0,1.0,60,0.00,,,0.00,227,WeatherCatV1.11B39,2013-09-14 14:31:00,
2013-09-14 07:36:00,79.0,64.8,29.60,ENE,74,5.0,7.0,62,0.00,,,0.00,241,WeatherCatV1.11B39,2013-09-14 14:36:00,
2013-09-14 07:41:00,79.3,64.2,29.60,NNW,328,2.0,2.0,60,0.00,,,0.00,258,WeatherCatV1.11B39,2013-09-14 14:41:00,
2013-09-14 07:46:00,79.6,64.5,29.60,ESE,117,0.0,3.0,60,0.00,,,0.00,278,WeatherCatV1.11B39,2013-09-14 14:46:00,
2013-09-14 07:51:00,80.4,64.7,29.60,East,80,5.0,5.0,59,0.00,,,0.00,294,WeatherCatV1.11B39,2013-09-14 14:51:00,
2013-09-14 07:56:00,81.0,64.8,29.60,NE,51,0.0,3.0,58,0.00,,,0.00,309,WeatherCatV1.11B39,2013-09-14 14:56:00,
2013-09-14 08:01:00,81.5,65.3,29.60,NE,49,2.0,3.0,58,0.00,,,0.00,330,WeatherCatV1.11B39,2013-09-14 15:01:00,
2013-09-14 08:06:00,81.9,65.1,29.60,ENE,68,5.0,6.0,57,0.00,,,0.00,345,WeatherCatV1.11B39,2013-09-14 15:06:00,
2013-09-14 08:12:00,82.2,64.4,29.60,ENE,74,9.0,11.0,55,0.00,,,0.00,364,WeatherCatV1.11B39,2013-09-14 15:12:00,
2013-09-14 08:17:00,83.2,64.8,29.60,NE,56,4.0,9.0,54,0.00,,,0.00,381,WeatherCatV1.11B39,2013-09-14 15:17:00,
2013-09-14 08:22:00,83.7,64.2,29.60,SE,124,4.0,13.0,52,0.00,,,0.00,397,WeatherCatV1.11B39,2013-09-14 15:22:00,
2013-09-14 08:27:00,83.9,64.4,29.60,ENE,71,10.0,11.0,52,0.00,,,0.00,417,WeatherCatV1.11B39,2013-09-14 15:27:00,
2013-09-14 08:32:00,84.1,64.5,29.60,East,86,5.0,12.0,52,0.00,,,0.00,432,WeatherCatV1.11B39,2013-09-14 15:32:00,
2013-09-14 08:37:00,84.4,64.3,29.60,ESE,114,6.0,12.0,51,0.00,,,0.00,445,WeatherCatV1.11B39,2013-09-14 15:37:00,
2013-09-14 08:42:00,84.9,64.7,29.60,ESE,116,3.0,6.0,51,0.00,,,0.00,469,WeatherCatV1.11B39,2013-09-14 15:42:00,
2013-09-14 08:47:00,85.2,64.4,29.61,ESE,122,7.0,7.0,50,0.00,,,0.00,485,WeatherCatV1.11B39,2013-09-14 15:47:00,
2013-09-14 08:52:00,85.5,64.1,29.61,SE,124,2.0,12.0,49,0.00,,,0.00,496,WeatherCatV1.11B39,2013-09-14 15:52:00,
2013-09-14 08:57:00,85.8,64.4,29.61,SE,135,7.0,11.0,49,0.00,,,0.00,515,WeatherCatV1.11B39,2013-09-14 15:57:00,
2013-09-14 09:02:00,86.1,64.7,29.61,ESE,123,7.0,11.0,49,0.00,,,0.00,529,WeatherCatV1.11B39,2013-09-14 16:02:00,
2013-09-14 09:07:00,86.1,64.7,29.61,ESE,112,7.0,13.0,49,0.00,,,0.00,541,WeatherCatV1.11B39,2013-09-14 16:07:00,
2013-09-14 09:12:00,86.2,64.8,29.61,SE,130,14.0,14.0,49,0.00,,,0.00,557,WeatherCatV1.11B39,2013-09-14 16:12:00,
2013-09-14 09:17:00,86.2,64.8,29.61,ESE,103,4.0,13.0,49,0.00,,,0.00,571,WeatherCatV1.11B39,2013-09-14 16:17:00,
2013-09-14 09:22:00,86.6,64.5,29.61,ESE,111,4.0,8.0,48,0.00,,,0.00,585,WeatherCatV1.11B39,2013-09-14 16:22:00,
2013-09-14 09:27:00,86.7,64.6,29.61,East,85,10.0,10.0,48,0.00,,,0.00,599,WeatherCatV1.11B39,2013-09-14 16:27:00,
2013-09-14 09:32:00,87.1,64.4,29.61,East,96,8.0,10.0,47,0.00,,,0.00,613,WeatherCatV1.11B39,2013-09-14 16:32:00,
2013-09-14 09:37:00,87.8,65.0,29.61,ESE,105,9.0,9.0,47,0.00,,,0.00,624,WeatherCatV1.11B39,2013-09-14 16:37:00,
2013-09-14 09:42:00,88.0,64.0,29.61,East,91,4.0,10.0,45,0.00,,,0.00,645,WeatherCatV1.11B39,2013-09-14 16:42:00,
2013-09-14 09:47:00,88.6,64.5,29.61,ENE,78,5.0,9.0,45,0.00,,,0.00,659,WeatherCatV1.11B39,2013-09-14 16:47:00,
2013-09-14 09:52:00,88.9,65.4,29.61,ESE,108,4.0,11.0,46,0.00,,,0.00,670,WeatherCatV1.11B39,2013-09-14 16:52:00,
2013-09-14 09:57:00,89.7,64.2,29.61,ESE,117,2.0,9.0,43,0.00,,,0.00,701,WeatherCatV1.11B39,2013-09-14 16:57:00,
2013-09-14 10:02:00,89.2,64.4,29.61,East,86,5.0,7.0,44,0.00,,,0.00,714,WeatherCatV1.11B39,2013-09-14 17:02:00,
2013-09-14 10:07:00,89.7,64.2,29.61,SE,126,3.0,8.0,43,0.00,,,0.00,650,WeatherCatV1.11B39,2013-09-14 17:07:00,
2013-09-14 10:12:00,89.8,62.9,29.61,East,80,2.0,9.0,41,0.00,,,0.00,722,WeatherCatV1.11B39,2013-09-14 17:12:00,
2013-09-14 10:17:00,89.2,63.1,29.61,ESE,111,1.0,3.0,42,0.00,,,0.00,726,WeatherCatV1.11B39,2013-09-14 17:17:00,
2013-09-14 10:22:00,89.9,63.0,29.61,East,85,1.0,7.0,41,0.00,,,0.00,737,WeatherCatV1.11B39,2013-09-14 17:22:00,
2013-09-14 10:27:00,90.1,63.2,29.61,ENE,68,1.0,6.0,41,0.00,,,0.00,740,WeatherCatV1.11B39,2013-09-14 17:27:00,
2013-09-14 10:32:00,90.4,63.4,29.60,SE,132,1.0,4.0,41,0.00,,,0.00,751,WeatherCatV1.11B39,2013-09-14 17:32:00,
2013-09-14 10:37:00,91.2,63.5,29.60,SSE,155,5.0,7.0,40,0.00,,,0.00,761,WeatherCatV1.11B39,2013-09-14 17:37:00,
2013-09-14 10:42:00,91.3,62.8,29.60,SE,136,1.0,4.0,39,0.00,,,0.00,773,WeatherCatV1.11B39,2013-09-14 17:42:00,
2013-09-14 10:47:00,92.0,62.7,29.60,SSE,155,2.0,5.0,38,0.00,,,0.00,780,WeatherCatV1.11B39,2013-09-14 17:47:00,
2013-09-14 10:52:00,91.7,63.2,29.59,ESE,121,2.0,2.0,39,0.00,,,0.00,788,WeatherCatV1.11B39,2013-09-14 17:52:00,
2013-09-14 10:57:00,91.6,63.1,29.60,SE,146,2.0,8.0,39,0.00,,,0.00,798,WeatherCatV1.11B39,2013-09-14 17:57:00,
2013-09-14 11:02:00,92.4,62.3,29.59,ESE,118,1.0,2.0,37,0.00,,,0.00,802,WeatherCatV1.11B39,2013-09-14 18:02:00,
2013-09-14 11:07:00,92.6,63.2,29.59,East,84,2.0,5.0,38,0.00,,,0.00,807,WeatherCatV1.11B39,2013-09-14 18:07:00,
2013-09-14 11:12:00,92.5,63.9,29.59,ENE,62,2.0,5.0,39,0.00,,,0.00,817,WeatherCatV1.11B39,2013-09-14 18:12:00,
2013-09-14 11:17:00,92.6,63.2,29.59,ESE,113,1.0,2.0,38,0.00,,,0.00,821,WeatherCatV1.11B39,2013-09-14 18:17:00,
2013-09-14 11:22:00,93.3,63.1,29.59,ESE,116,3.0,4.0,37,0.00,,,0.00,828,WeatherCatV1.11B39,2013-09-14 18:22:00,
2013-09-14 11:27:00,93.2,63.8,29.58,SE,145,6.0,9.0,38,0.00,,,0.00,837,WeatherCatV1.11B39,2013-09-14 18:27:00,
2013-09-14 11:32:00,93.6,64.1,29.59,SE,145,1.0,5.0,38,0.00,,,0.00,838,WeatherCatV1.11B39,2013-09-14 18:32:00,
2013-09-14 11:37:00,92.9,63.5,29.58,SSE,147,0.0,4.0,38,0.00,,,0.00,844,WeatherCatV1.11B39,2013-09-14 18:37:00,
2013-09-14 11:42:00,92.8,63.4,29.58,ESE,118,0.0,1.0,38,0.00,,,0.00,854,WeatherCatV1.11B39,2013-09-14 18:42:00,
2013-09-14 11:47:00,94.8,63.6,29.58,SSE,163,1.0,5.0,36,0.00,,,0.00,865,WeatherCatV1.11B39,2013-09-14 18:47:00,
2013-09-14 11:52:00,94.6,62.6,29.58,WSW,237,5.0,9.0,35,0.00,,,0.00,868,WeatherCatV1.11B39,2013-09-14 18:52:00,
2013-09-14 11:57:00,95.0,63.0,29.58,South,172,2.0,10.0,35,0.00,,,0.00,877,WeatherCatV1.11B39,2013-09-14 18:57:00,
2013-09-14 12:02:00,94.6,62.6,29.57,SW,216,2.0,7.0,35,0.00,,,0.00,888,WeatherCatV1.11B39,2013-09-14 19:02:00,
2013-09-14 12:07:00,95.3,61.6,29.57,South,184,2.0,4.0,33,0.00,,,0.00,891,WeatherCatV1.11B39,2013-09-14 19:07:00,
2013-09-14 12:12:00,95.4,59.0,29.57,WSW,238,7.0,8.0,30,0.00,,,0.00,893,WeatherCatV1.11B39,2013-09-14 19:12:00,
2013-09-14 12:17:00,95.8,58.4,29.57,WNW,294,4.0,7.0,29,0.00,,,0.00,902,WeatherCatV1.11B39,2013-09-14 19:17:00,
2013-09-14 12:22:00,96.1,57.7,29.57,WSW,241,2.0,6.0,28,0.00,,,0.00,926,WeatherCatV1.11B39,2013-09-14 19:22:00,
2013-09-14 12:27:00,95.6,57.2,29.57,South,176,7.0,8.0,28,0.00,,,0.00,962,WeatherCatV1.11B39,2013-09-14 19:27:00,
2013-09-14 12:32:00,96.0,54.4,29.57,South,178,2.0,7.0,25,0.00,,,0.00,944,WeatherCatV1.11B39,2013-09-14 19:32:00,
2013-09-14 12:37:00,96.2,55.7,29.57,SE,145,1.0,4.0,26,0.00,,,0.00,932,WeatherCatV1.11B39,2013-09-14 19:37:00,
2013-09-14 12:42:00,97.2,54.3,29.57,SE,129,2.0,5.0,24,0.00,,,0.00,932,WeatherCatV1.11B39,2013-09-14 19:42:00,
2013-09-14 12:47:00,97.4,56.7,29.56,SE,124,2.0,3.0,26,0.00,,,0.00,937,WeatherCatV1.11B39,2013-09-14 19:47:00,
2013-09-14 12:52:00,96.7,51.5,29.56,SSE,163,3.0,6.0,22,0.00,,,0.00,942,WeatherCatV1.11B39,2013-09-14 19:52:00,
2013-09-14 12:57:00,97.1,55.4,29.56,SSW,202,6.0,6.0,25,0.00,,,0.00,893,WeatherCatV1.11B39,2013-09-14 19:57:00,
2013-09-14 13:02:00,98.0,55.0,29.56,SSE,157,6.0,7.0,24,0.00,,,0.00,896,WeatherCatV1.11B39,2013-09-14 20:02:00,
2013-09-14 13:07:00,97.8,54.8,29.56,South,175,6.0,7.0,24,0.00,,,0.00,888,WeatherCatV1.11B39,2013-09-14 20:07:00,
2013-09-14 13:12:00,96.4,55.9,29.56,ESE,115,3.0,5.0,26,0.00,,,0.00,893,WeatherCatV1.11B39,2013-09-14 20:12:00,
2013-09-14 13:17:00,96.6,56.0,29.55,SE,129,3.0,4.0,26,0.00,,,0.00,761,WeatherCatV1.11B39,2013-09-14 20:17:00,
2013-09-14 13:22:00,95.6,56.2,29.55,South,177,6.0,6.0,27,0.00,,,0.00,121,WeatherCatV1.11B39,2013-09-14 20:22:00,
2013-09-14 13:27:00,95.8,56.4,29.55,SE,146,3.0,4.0,27,0.00,,,0.00,891,WeatherCatV1.11B39,2013-09-14 20:27:00,
2013-09-14 13:32:00,96.7,57.2,29.54,SSE,157,0.0,3.0,27,0.00,,,0.00,856,WeatherCatV1.11B39,2013-09-14 20:32:00,
2013-09-14 13:37:00,96.8,56.2,29.54,South,185,2.0,5.0,26,0.00,,,0.00,846,WeatherCatV1.11B39,2013-09-14 20:37:00,
2013-09-14 13:42:00,96.5,55.9,29.54,SE,138,3.0,3.0,26,0.00,,,0.00,812,WeatherCatV1.11B39,2013-09-14 20:42:00,
2013-09-14 13:47:00,95.5,56.1,29.54,South,174,0.0,3.0,27,0.00,,,0.00,116,WeatherCatV1.11B39,2013-09-14 20:47:00,
2013-09-14 13:52:00,95.6,56.2,29.53,SSE,168,1.0,3.0,27,0.00,,,0.00,171,WeatherCatV1.11B39,2013-09-14 20:52:00,
2013-09-14 13:57:00,95.5,54.0,29.53,WSW,238,0.0,3.0,25,0.00,,,0.00,816,WeatherCatV1.11B39,2013-09-14 20:57:00,
2013-09-14 14:02:00,95.9,54.4,29.53,NNW,343,2.0,4.0,25,0.00,,,0.00,833,WeatherCatV1.11B39,2013-09-14 21:02:00,
2013-09-14 14:07:00,95.5,54.0,29.53,WNW,288,3.0,4.0,25,0.00,,,0.00,796,WeatherCatV1.11B39,2013-09-14 21:07:00,
2013-09-14 14:12:00,96.9,55.2,29.53,NE,34,3.0,4.0,25,0.00,,,0.00,800,WeatherCatV1.11B39,2013-09-14 21:12:00,
2013-09-14 14:17:00,97.6,54.7,29.53,WSW,241,2.0,8.0,24,0.00,,,0.00,795,WeatherCatV1.11B39,2013-09-14 21:17:00,
2013-09-14 14:22:00,99.0,53.4,29.53,WSW,247,3.0,5.0,22,0.00,,,0.00,795,WeatherCatV1.11B39,2013-09-14 21:22:00,
2013-09-14 14:27:00,98.9,53.4,29.53,WNW,286,7.0,11.0,22,0.00,,,0.00,775,WeatherCatV1.11B39,2013-09-14 21:27:00,
2013-09-14 14:32:00,97.9,53.7,29.53,WNW,302,5.0,8.0,23,0.00,,,0.00,759,WeatherCatV1.11B39,2013-09-14 21:32:00,
2013-09-14 14:37:00,97.5,53.4,29.52,NW,312,4.0,6.0,23,0.00,,,0.00,747,WeatherCatV1.11B39,2013-09-14 21:37:00,
2013-09-14 14:42:00,98.3,52.9,29.53,West,265,6.0,9.0,22,0.00,,,0.00,733,WeatherCatV1.11B39,2013-09-14 21:42:00,
2013-09-14 14:47:00,98.3,54.1,29.52,WNW,283,3.0,8.0,23,0.00,,,0.00,719,WeatherCatV1.11B39,2013-09-14 21:47:00,
2013-09-14 14:52:00,97.8,53.7,29.52,NNW,348,2.0,5.0,23,0.00,,,0.00,707,WeatherCatV1.11B39,2013-09-14 21:52:00,
2013-09-14 14:57:00,97.6,53.5,29.52,WNW,292,4.0,4.0,23,0.00,,,0.00,689,WeatherCatV1.11B39,2013-09-14 21:57:00,
2013-09-14 15:02:00,97.9,52.5,29.52,WNW,292,1.0,5.0,22,0.00,,,0.00,666,WeatherCatV1.11B39,2013-09-14 22:02:00,
2013-09-14 15:07:00,97.9,52.5,29.52,WSW,257,1.0,5.0,22,0.00,,,0.00,643,WeatherCatV1.11B39,2013-09-14 22:07:00,
2013-09-14 15:12:00,99.1,53.5,29.51,West,265,2.0,4.0,22,0.00,,,0.00,631,WeatherCatV1.11B39,2013-09-14 22:12:00,
2013-09-14 15:17:00,99.0,52.2,29.51,South,187,3.0,7.0,21,0.00,,,0.00,617,WeatherCatV1.11B39,2013-09-14 22:17:00,
2013-09-14 15:22:00,98.2,52.8,29.51,NNW,333,4.0,7.0,22,0.00,,,0.00,601,WeatherCatV1.11B39,2013-09-14 22:22:00,
2013-09-14 15:27:00,97.4,52.1,29.51,NW,319,1.0,3.0,22,0.00,,,0.00,584,WeatherCatV1.11B39,2013-09-14 22:27:00,
2013-09-14 15:32:00,97.6,52.3,29.51,SSE,153,4.0,8.0,22,0.00,,,0.00,568,WeatherCatV1.11B39,2013-09-14 22:32:00,
2013-09-14 15:37:00,97.7,52.4,29.51,SE,139,3.0,5.0,22,0.00,,,0.00,552,WeatherCatV1.11B39,2013-09-14 22:37:00,
2013-09-14 15:42:00,98.7,53.2,29.51,WSW,249,4.0,7.0,22,0.00,,,0.00,536,WeatherCatV1.11B39,2013-09-14 22:42:00,
2013-09-14 15:47:00,98.5,53.0,29.50,SSW,201,5.0,8.0,22,0.00,,,0.00,520,WeatherCatV1.11B39,2013-09-14 22:47:00,
2013-09-14 15:49:00,98.6,54.3,29.50,WNW,288,3.0,6.0,23,0.00,,,0.00,512,WeatherCatV1.11B39,2013-09-14 22:49:00,
2013-09-14 15:54:00,98.1,53.9,29.50,SSW,206,3.0,5.0,23,0.00,,,0.00,496,WeatherCatV1.11B39,2013-09-14 22:54:00,
2013-09-14 15:59:00,97.5,53.4,29.50,West,281,2.0,7.0,23,0.00,,,0.00,482,WeatherCatV1.11B39,2013-09-14 22:59:00,
2013-09-14 16:04:00,97.3,54.4,29.50,WNW,301,0.0,1.0,24,0.00,,,0.00,462,WeatherCatV1.11B39,2013-09-14 23:04:00,
2013-09-14 16:09:00,97.5,53.4,29.51,NW,306,1.0,2.0,23,0.00,,,0.00,443,WeatherCatV1.11B39,2013-09-14 23:09:00,
2013-09-14 16:14:00,97.6,52.3,29.50,WNW,298,5.0,6.0,22,0.00,,,0.00,427,WeatherCatV1.11B39,2013-09-14 23:14:00,
2013-09-14 16:19:00,96.7,52.7,29.51,WNW,294,5.0,5.0,23,0.00,,,0.00,408,WeatherCatV1.11B39,2013-09-14 23:19:00,
2013-09-14 16:24:00,96.8,52.8,29.51,West,272,2.0,6.0,23,0.00,,,0.00,390,WeatherCatV1.11B39,2013-09-14 23:24:00,
2013-09-14 16:29:00,96.3,52.4,29.50,WNW,284,6.0,6.0,23,0.00,,,0.00,376,WeatherCatV1.11B39,2013-09-14 23:29:00,
2013-09-14 16:34:00,96.6,52.7,29.50,WNW,296,5.0,5.0,23,0.00,,,0.00,357,WeatherCatV1.11B39,2013-09-14 23:34:00,
2013-09-14 16:39:00,96.8,51.6,29.51,SW,226,2.0,3.0,22,0.00,,,0.00,341,WeatherCatV1.11B39,2013-09-14 23:39:00,
2013-09-14 16:44:00,97.1,51.9,29.51,SW,221,3.0,3.0,22,0.00,,,0.00,323,WeatherCatV1.11B39,2013-09-14 23:44:00,
2013-09-14 16:49:00,96.4,51.3,29.50,South,177,3.0,5.0,22,0.00,,,0.00,306,WeatherCatV1.11B39,2013-09-14 23:49:00,
2013-09-14 16:54:00,96.2,52.3,29.51,SSW,193,4.0,5.0,23,0.00,,,0.00,290,WeatherCatV1.11B39,2013-09-14 23:54:00,
2013-09-14 16:59:00,96.4,53.7,29.50,West,274,5.0,6.0,24,0.00,,,0.00,272,WeatherCatV1.11B39,2013-09-14 23:59:00,
2013-09-14 17:04:00,96.3,53.6,29.51,SW,225,2.0,5.0,24,0.00,,,0.00,253,WeatherCatV1.11B39,2013-09-15 00:04:00,
2013-09-14 17:09:00,96.5,53.7,29.50,SSW,201,5.0,5.0,24,0.00,,,0.00,236,WeatherCatV1.11B39,2013-09-15 00:09:00,
2013-09-14 17:14:00,96.4,53.7,29.51,SSW,199,1.0,3.0,24,0.00,,,0.00,216,WeatherCatV1.11B39,2013-09-15 00:14:00,
2013-09-14 17:19:00,96.2,53.5,29.51,SSW,212,3.0,3.0,24,0.00,,,0.00,192,WeatherCatV1.11B39,2013-09-15 00:19:00,
2013-09-14 17:24:00,95.6,53.0,29.51,South,181,2.0,5.0,24,0.00,,,0.00,171,WeatherCatV1.11B39,2013-09-15 00:24:00,
2013-09-14 17:29:00,94.7,53.4,29.51,South,181,0.0,3.0,25,0.00,,,0.00,151,WeatherCatV1.11B39,2013-09-15 00:29:00,
2013-09-14 17:34:00,94.7,53.4,29.51,South,182,3.0,3.0,25,0.00,,,0.00,32,WeatherCatV1.11B39,2013-09-15 00:34:00,
2013-09-14 17:39:00,94.1,53.9,29.51,South,182,0.0,2.0,26,0.00,,,0.00,28,WeatherCatV1.11B39,2013-09-15 00:39:00,
2013-09-14 17:44:00,93.4,53.3,29.51,South,182,0.0,0.0,26,0.00,,,0.00,25,WeatherCatV1.11B39,2013-09-15 00:44:00,
2013-09-14 17:49:00,93.0,54.0,29.51,South,182,0.0,1.0,27,0.00,,,0.00,23,WeatherCatV1.11B39,2013-09-15 00:49:00,
2013-09-14 17:54:00,92.4,53.5,29.51,South,182,1.0,2.0,27,0.00,,,0.00,19,WeatherCatV1.11B39,2013-09-15 00:54:00,
2013-09-14 17:59:00,92.1,54.3,29.51,South,182,2.0,3.0,28,0.00,,,0.00,33,WeatherCatV1.11B39,2013-09-15 00:59:00,
2013-09-14 18:04:00,92.2,54.3,29.52,South,181,1.0,2.0,28,0.00,,,0.00,30,WeatherCatV1.11B39,2013-09-15 01:04:00,
2013-09-14 18:09:00,92.2,53.3,29.51,South,181,0.0,3.0,27,0.00,,,0.00,19,WeatherCatV1.11B39,2013-09-15 01:09:00,
2013-09-14 18:14:00,91.9,54.1,29.52,South,181,1.0,1.0,28,0.00,,,0.00,14,WeatherCatV1.11B39,2013-09-15 01:14:00,
2013-09-14 18:19:00,91.2,55.4,29.52,South,181,0.0,0.0,30,0.00,,,0.00,11,WeatherCatV1.11B39,2013-09-15 01:19:00,
2013-09-14 18:24:00,90.6,55.8,29.51,South,181,0.0,0.0,31,0.00,,,0.00,9,WeatherCatV1.11B39,2013-09-15 01:24:00,
2013-09-14 18:29:00,89.8,56.0,29.51,South,181,0.0,0.0,32,0.00,,,0.00,5,WeatherCatV1.11B39,2013-09-15 01:29:00,
2013-09-14 18:34:00,89.0,56.1,29.51,South,181,0.0,0.0,33,0.00,,,0.00,0,WeatherCatV1.11B39,2013-09-15 01:34:00,
2013-09-14 18:39:00,88.0,56.1,29.51,South,181,0.0,1.0,34,0.00,,,0.00,0,WeatherCatV1.11B39,2013-09-15 01:39:00,
2013-09-14 18:44:00,87.4,56.3,29.52,South,181,0.0,0.0,35,0.00,,,0.00,0,WeatherCatV1.11B39,2013-09-15 01:44:00,
2013-09-14 18:49:00,86.7,56.5,29.52,South,181,1.0,1.0,36,0.00,,,0.00,0,WeatherCatV1.11B39,2013-09-15 01:49:00,
2013-09-14 18:54:00,86.3,56.2,29.52,South,181,0.0,1.0,36,0.00,,,0.00,0,WeatherCatV1.11B39,2013-09-15 01:54:00,
2013-09-14 18:59:00,86.1,57.5,29.52,South,181,1.0,1.0,38,0.00,,,0.00,0,WeatherCatV1.11B39,2013-09-15 01:59:00,
2013-09-14 19:04:00,85.9,57.3,29.52,South,181,0.0,1.0,38,0.00,,,0.00,0,WeatherCatV1.11B39,2013-09-15 02:04:00,
2013-09-14 19:09:00,85.5,57.0,29.52,South,180,1.0,2.0,38,0.00,,,0.00,0,WeatherCatV1.11B39,2013-09-15 02:09:00,
2013-09-14 19:14:00,85.3,56.8,29.52,South,177,1.0,2.0,38,0.00,,,0.00,0,WeatherCatV1.11B39,2013-09-15 02:14:00,
2013-09-14 19:19:00,85.2,56.7,29.52,South,176,1.0,1.0,38,0.00,,,0.00,0,WeatherCatV1.11B39,2013-09-15 02:19:00,
2013-09-14 19:24:00,85.0,56.5,29.52,South,176,1.0,1.0,38,0.00,,,0.00,0,WeatherCatV1.11B39,2013-09-15 02:24:00,
2013-09-14 19:29:00,85.0,57.2,29.53,South,176,0.0,1.0,39,0.00,,,0.00,0,WeatherCatV1.11B39,2013-09-15 02:29:00,
2013-09-14 19:34:00,84.9,56.4,29.53,South,176,0.0,0.0,38,0.00,,,0.00,0,WeatherCatV1.11B39,2013-09-15 02:34:00,
2013-09-14 19:39:00,84.8,57.1,29.53,South,176,0.0,1.0,39,0.00,,,0.00,0,WeatherCatV1.11B39,2013-09-15 02:39:00,
2013-09-14 19:44:00,84.4,56.7,29.54,South,174,1.0,2.0,39,0.00,,,0.00,0,WeatherCatV1.11B39,2013-09-15 02:44:00,
2013-09-14 19:49:00,84.0,57.0,29.54,South,174,0.0,1.0,40,0.00,,,0.00,0,WeatherCatV1.11B39,2013-09-15 02:49:00,
2013-09-14 19:54:00,83.5,56.6,29.54,South,174,0.0,1.0,40,0.00,,,0.00,0,WeatherCatV1.11B39,2013-09-15 02:54:00,
2013-09-14 19:59:00,83.6,56.7,29.54,South,174,0.0,3.0,40,0.00,,,0.00,0,WeatherCatV1.11B39,2013-09-15 02:59:00,
2013-09-14 20:04:00,83.6,56.7,29.55,South,174,1.0,2.0,40,0.00,,,0.00,0,WeatherCatV1.11B39,2013-09-15 03:04:00,
2013-09-14 20:09:00,83.1,56.9,29.55,South,174,0.0,1.0,41,0.00,,,0.00,0,WeatherCatV1.11B39,2013-09-15 03:09:00,
2013-09-14 20:14:00,82.6,56.5,29.55,South,174,0.0,1.0,41,0.00,,,0.00,0,WeatherCatV1.11B39,2013-09-15 03:14:00,
2013-09-14 20:19:00,82.5,56.4,29.55,South,174,1.0,1.0,41,0.00,,,0.00,0,WeatherCatV1.11B39,2013-09-15 03:19:00,
2013-09-14 20:24:00,83.0,55.5,29.56,South,172,3.0,4.0,39,0.00,,,0.00,0,WeatherCatV1.11B39,2013-09-15 03:24:00,
2013-09-14 20:29:00,83.4,56.5,29.56,South,172,0.0,0.0,40,0.00,,,0.00,0,WeatherCatV1.11B39,2013-09-15 03:29:00,
2013-09-14 20:34:00,83.1,56.2,29.56,SSE,149,1.0,2.0,40,0.00,,,0.00,0,WeatherCatV1.11B39,2013-09-15 03:34:00,
2013-09-14 20:39:00,83.2,56.3,29.56,SSE,148,2.0,2.0,40,0.00,,,0.00,0,WeatherCatV1.11B39,2013-09-15 03:39:00,
2013-09-14 20:44:00,82.7,55.9,29.56,SE,146,2.0,2.0,40,0.00,,,0.00,0,WeatherCatV1.11B39,2013-09-15 03:44:00,
2013-09-14 20:49:00,83.0,55.5,29.56,SE,144,1.0,2.0,39,0.00,,,0.00,0,WeatherCatV1.11B39,2013-09-15 03:49:00,
2013-09-14 20:54:00,82.8,56.0,29.56,SE,144,1.0,2.0,40,0.00,,,0.00,0,WeatherCatV1.11B39,2013-09-15 03:54:00,
2013-09-14 20:59:00,82.7,55.9,29.56,SE,143,1.0,2.0,40,0.00,,,0.00,0,WeatherCatV1.11B39,2013-09-15 03:59:00,
2013-09-14 21:01:00,82.7,55.9,29.56,SE,143,0.0,2.0,40,0.00,,,0.00,0,WeatherCatV1.11B39,2013-09-15 04:01:00,
2013-09-14 21:06:00,82.4,55.6,29.56,SE,143,0.0,1.0,40,0.00,,,0.00,0,WeatherCatV1.11B39,2013-09-15 04:06:00,
2013-09-14 21:11:00,82.1,56.0,29.56,SE,143,0.0,1.0,41,0.00,,,0.00,0,WeatherCatV1.11B39,2013-09-15 04:11:00,
2013-09-14 21:16:00,81.6,55.6,29.56,SE,143,1.0,1.0,41,0.00,,,0.00,0,WeatherCatV1.11B39,2013-09-15 04:16:00,
2013-09-14 21:21:00,81.1,55.8,29.56,SE,144,1.0,2.0,42,0.00,,,0.00,0,WeatherCatV1.11B39,2013-09-15 04:21:00,
2013-09-14 21:26:00,81.2,55.9,29.56,SE,145,1.0,1.0,42,0.00,,,0.00,0,WeatherCatV1.11B39,2013-09-15 04:26:00,
2013-09-14 21:31:00,81.6,55.6,29.57,SE,145,1.0,2.0,41,0.00,,,0.00,0,WeatherCatV1.11B39,2013-09-15 04:31:00,
2013-09-14 21:36:00,82.0,55.3,29.57,SE,142,0.0,2.0,40,0.00,,,0.00,0,WeatherCatV1.11B39,2013-09-15 04:36:00,
2013-09-14 21:41:00,82.0,55.3,29.57,SE,142,1.0,2.0,40,0.00,,,0.00,0,WeatherCatV1.11B39,2013-09-15 04:41:00,
2013-09-14 21:46:00,82.0,55.9,29.57,SE,136,2.0,6.0,41,0.00,,,0.00,0,WeatherCatV1.11B39,2013-09-15 04:46:00,
2013-09-14 21:51:00,82.3,56.2,29.57,SE,126,4.0,4.0,41,0.00,,,0.00,0,WeatherCatV1.11B39,2013-09-15 04:51:00,
2013-09-14 21:56:00,82.5,55.7,29.57,SE,126,1.0,2.0,40,0.00,,,0.00,0,WeatherCatV1.11B39,2013-09-15 04:56:00,
2013-09-14 22:01:00,82.6,56.5,29.57,SE,125,0.0,2.0,41,0.00,,,0.00,0,WeatherCatV1.11B39,2013-09-15 05:01:00,
2013-09-14 22:06:00,81.6,56.3,29.58,SE,125,0.0,0.0,42,0.00,,,0.00,0,WeatherCatV1.11B39,2013-09-15 05:06:00,
2013-09-14 22:11:00,81.0,56.4,29.58,SE,125,0.0,0.0,43,0.00,,,0.00,0,WeatherCatV1.11B39,2013-09-15 05:11:00,
2013-09-14 22:16:00,80.3,57.0,29.58,SE,125,0.0,0.0,45,0.00,,,0.00,0,WeatherCatV1.11B39,2013-09-15 05:16:00,
2013-09-14 22:21:00,80.1,56.8,29.58,SE,125,0.0,1.0,45,0.00,,,0.00,0,WeatherCatV1.11B39,2013-09-15 05:21:00,
2013-09-14 22:26:00,79.3,57.3,29.58,SE,125,0.0,0.0,47,0.00,,,0.00,0,WeatherCatV1.11B39,2013-09-15 05:26:00,
2013-09-14 22:31:00,79.0,56.4,29.58,SE,125,0.0,0.0,46,0.00,,,0.00,0,WeatherCatV1.11B39,2013-09-15 05:31:00,
2013-09-14 22:36:00,78.6,57.2,29.58,SE,125,0.0,0.0,48,0.00,,,0.00,0,WeatherCatV1.11B39,2013-09-15 05:36:00,
2013-09-14 22:41:00,78.3,57.5,29.58,SE,125,0.0,0.0,49,0.00,,,0.00,0,WeatherCatV1.11B39,2013-09-15 05:41:00,
2013-09-14 22:46:00,77.9,57.2,29.58,SE,125,0.0,0.0,49,0.00,,,0.00,0,WeatherCatV1.11B39,2013-09-15 05:46:00,
2013-09-14 22:51:00,77.7,57.6,29.58,SE,125,0.0,0.0,50,0.00,,,0.00,0,WeatherCatV1.11B39,2013-09-15 05:51:00,
2013-09-14 22:56:00,77.4,58.4,29.58,SE,125,0.0,0.0,52,0.00,,,0.00,0,WeatherCatV1.11B39,2013-09-15 05:56:00,
2013-09-14 23:01:00,76.7,57.7,29.58,SE,125,1.0,2.0,52,0.00,,,0.00,0,WeatherCatV1.11B39,2013-09-15 06:01:00,
2013-09-14 23:06:00,76.3,57.9,29.58,SE,125,2.0,3.0,53,0.00,,,0.00,0,WeatherCatV1.11B39,2013-09-15 06:06:00,
2013-09-14 23:11:00,77.0,58.0,29.58,SE,125,1.0,1.0,52,0.00,,,0.00,0,WeatherCatV1.11B39,2013-09-15 06:11:00,
2013-09-14 23:16:00,77.2,57.6,29.58,SE,125,0.0,1.0,51,0.00,,,0.00,0,WeatherCatV1.11B39,2013-09-15 06:16:00,
2013-09-14 23:21:00,77.2,58.2,29.58,SE,128,1.0,3.0,52,0.00,,,0.00,0,WeatherCatV1.11B39,2013-09-15 06:21:00,
2013-09-14 23:26:00,77.5,58.5,29.58,SE,130,1.0,2.0,52,0.00,,,0.00,0,WeatherCatV1.11B39,2013-09-15 06:26:00,
2013-09-14 23:31:00,77.4,57.8,29.58,SE,130,0.0,1.0,51,0.00,,,0.00,0,WeatherCatV1.11B39,2013-09-15 06:31:00,
2013-09-14 23:36:00,77.1,58.1,29.58,SE,130,0.0,1.0,52,0.00,,,0.00,0,WeatherCatV1.11B39,2013-09-15 06:36:00,
2013-09-14 23:41:00,76.4,58.5,29.58,SE,130,1.0,1.0,54,0.00,,,0.00,0,WeatherCatV1.11B39,2013-09-15 06:41:00,
2013-09-14 23:46:00,76.0,58.6,29.58,SE,130,0.0,2.0,55,0.00,,,0.00,0,WeatherCatV1.11B39,2013-09-15 06:46:00,
2013-09-14 23:51:00,75.9,58.6,29.59,SE,130,1.0,2.0,55,0.00,,,0.00,0,WeatherCatV1.11B39,2013-09-15 06:51:00,
2013-09-14 23:56:00,76.3,58.4,29.59,SE,128,1.0,4.0,54,0.00,,,0.00,0,WeatherCatV1.11B39,2013-09-15 06:56:00,